Location: Newark
(48.3453°N, 0.5589°E)
Time: 10:59:43
(UTC+00:00)

A-11 Canister half - Pass Details

Date: 13 December 2019
Orbit: 1517 x 1683 km, 47.2° (Epoch: 23 January)

Event Time Altitude Azimuth Distance (km) Brightness Sun altitude
Rises 19:14:21 0° 287° (WNW) 4,900 12.7 -30.6°
Reaches altitude 10° 19:19:08 10° 268° (W) 3,929 12.0 -31.4°
Maximum altitude 19:24:33 16° 235° (SW) 3,467 11.4 -32.3°
Drops below altitude 10° 19:30:00 10° 202° (SSW) 3,938 11.3 -33.2°
Sets 19:34:50 0° 183° (S) 4,917 11.7 -34.0°
